Content
SEND FEEDBACK

Daily
Averages
Monthly
Summary
United States of America

SOUTH LAKE TAHOE, CALIFORNIA


Home > North America > United States > California
Elevation: 6263 feet     Latitude: 38 53N     Longitude: 119 59W

WEATHER
 
SELECT A DAY
Number of Records: 174,537;   Date Range: 1/1/95 - 8/30/14
 
SHARE

PRINT THIS DATA

[ ← Previous Day ]
WEATHER ALMANAC - FEBRUARY 26, 2013
[ Next Day → ]
[ °C ]   °F
Weather ElementAverageHighLow
Temperature29.2 °F43 °F (2:53 pm)17.1 °F (5:53 am)
Dewpoint8.3 °F12 °F (1:53 am) (7:00 pm)
Humidity46.2 %71 % (2:53 am)17 % (1:53 pm)
Barometer30.23 in30.32 in (7:53 pm)30.13 in (1:53 am)
Wind Speed3.1 mph8.1 mph (10:53 am)
Weather ElementAverage
Visibility10 mi
Wind DirectionENE (59.6 °)

Weather ElementTotal
Precipitation---
Heating Degree Days35 (Base 65)
Averaged from 23 records on February 26, 2013
WEATHER CONDITIONS BREAKOUT
WIND DIRECTION BREAKOUT
WEATHER BY HOUR - FEBRUARY 26, 2013
[ °C ]   °F
Local TimeTemperatureDewpointHumidityBarometerVisibilityWind DirectionWind SpeedGust SpeedPrecipitationEventsConditions
1:53 AM23.0 °F12.0 °F63 %30.13 in10.0 miSSW (210°)3.5 mphClear
2:53 AM19.9 °F12.0 °F71 %30.16 in10.0 miCalmClear
3:53 AM19.0 °F10.9 °F71 %30.17 in10.0 miCalmClear
4:53 AM18.0 °F10.0 °F71 %30.19 in10.0 miSSW (200°)4.6 mphClear
5:53 AM17.1 °F9.0 °F71 %30.24 in10.0 miCalmClear
6:53 AM17.1 °F8.1 °F68 %30.26 in10.0 miCalmClear
7:53 AM19.0 °F10.0 °F68 %30.26 in10.0 miSouth (190°)3.5 mphClear
8:53 AM30.9 °F10.9 °F43 %30.22 in10.0 miCalmClear
9:53 AM35.1 °F12.0 °F39 %30.20 in10.0 miNE (40°)4.6 mphClear
10:53 AM37.9 °F6.1 °F27 %30.20 in10.0 miNE (40°)8.1 mphClear
11:53 AM39.0 °F9.0 °F29 %30.20 in10.0 miNNE (20°)8.1 mphClear
12:53 PM39.9 °F3.0 °F21 %30.19 in10.0 miNNE (30°)8.1 mphClear
1:53 PM42.1 °F0.0 °F17 %30.17 in10.0 miNNE (30°)6.9 mphClear
2:53 PM43.0 °F1.0 °F17 %30.19 in10.0 miVariable5.8 mphClear
3:53 PM41.0 °F0.0 °F18 %30.21 in10.0 miNNE (20°)5.8 mphClear
4:53 PM37.9 °F5.0 °F25 %30.25 in10.0 miCalmClear
5:53 PM33.1 °F8.1 °F35 %30.27 in10.0 miCalmClear
6:53 PM30.0 °F12.0 °F47 %30.31 in10.0 miCalmClear
7:53 PM28.0 °F10.9 °F49 %30.32 in10.0 miCalmClear
8:53 PM27.0 °F10.9 °F51 %30.28 in10.0 miSouth (190°)4.6 mphClear
9:53 PM26.1 °F10.0 °F51 %30.27 in10.0 miCalmClear
10:53 PM25.0 °F10.0 °F53 %30.26 in10.0 miSSW (200°)3.5 mphClear
11:53 PM23.0 °F10.0 °F58 %30.27 in10.0 miSSW (200°)3.5 mphClear
Hourly data recorded from KTVL, located miles away from South Lake Tahoe, California







STORIES FROM OUR PARTNERS